Location: Newark
(45.8378°N, 5.5389°E)
Time: 05:56:39
(UTC+00:00)

YUBILEINY - Pass Details

Date: 24 December 2019
Orbit: 1478 x 1509 km, 82.5° (Epoch: 20 January)

Event Time Altitude Azimuth Distance (km) Brightness Sun altitude
Rises 20:46:10 0° 217° (SW) 4,601 ? -48.9°
Reaches altitude 10° 20:49:20 10° 225° (SW) 3,621 ? -49.5°
Enters shadow 20:51:43 19° 234° (SW) 2,950 ? -49.8°
Exits shadow 21:05:31 - 359° (N) 3,693 ? -52.1°
Sets 21:08:30 0° 7° (N) 4,610 ? -52.6°
